This is the latest recevied weather packets stored in our database for station/object WI0K. If no packets are shown the sender has not sent any weather packets the latest 10 day(s).
| Time | Temp. | Humidity | Pressure | Rain* | Wind** | Luminosity | Snow |
|---|---|---|---|---|---|---|---|
| 1777587777 | 8.33° C | 54% | 1020.1 hPa | 0 mm | - | 251 W/m² | - |
| 1777587526 | 8.33° C | 54% | 1020.1 hPa | 0 mm | - | 251 W/m² | - |
| 1777587476 | 7.78° C | 52% | 832.8 hPa | 0 mm | - | 244 W/m² | - |
| 1777587225 | 7.78° C | 52% | 832.8 hPa | 0 mm | - | 244 W/m² | - |
| 1777587176 | 7.78° C | 53% | 832.8 hPa | 0 mm | - | 267 W/m² | - |
| 1777586924 | 7.78° C | 53% | 832.8 hPa | 0 mm | - | 267 W/m² | - |
| 1777586624 | 7.78° C | 54% | 1020.1 hPa | 0 mm | - | 346 W/m² | - |
| 1777586574 | 7.78° C | 55% | 832.8 hPa | 0 mm | - | 340 W/m² | - |
| 1777586323 | 7.78° C | 55% | 832.8 hPa | 0 mm | - | 340 W/m² | - |
| 1777586274 | 7.78° C | 55% | 1020.1 hPa | 0 mm | - | 584 W/m² | - |
| 1777586022 | 7.78° C | 55% | 1020.1 hPa | 0 mm | - | 584 W/m² | - |
| 1777585974 | 7.78° C | 56% | 832.9 hPa | 0 mm | - | 609 W/m² | - |
| 1777585722 | 7.78° C | 56% | 832.9 hPa | 0 mm | - | 609 W/m² | - |
| 1777585421 | 7.78° C | 56% | 832.9 hPa | 0 mm | - | 518 W/m² | - |
| 1777585120 | 7.78° C | 56% | 1020.3 hPa | 0 mm | - | 687 W/m² | - |
| 1777584820 | 7.22° C | 57% | 833 hPa | 0 mm | - | 556 W/m² | - |
| 1777584519 | 7.22° C | 58% | 833.1 hPa | 0 mm | - | 433 W/m² | - |
| 1777584219 | 7.22° C | 59% | 833.1 hPa | 0 mm | - | 409 W/m² | - |
| 1777583918 | 7.22° C | 61% | 1020.5 hPa | 0 mm | - | 322 W/m² | - |
| 1777583617 | 6.67° C | 61% | 833.2 hPa | 0 mm | - | 322 W/m² | - |
| 1777583316 | 6.67° C | 60% | 833.2 hPa | 0 mm | - | 287 W/m² | - |
| 1777583016 | 6.67° C | 62% | 1020.7 hPa | 0 mm | - | 198 W/m² | - |
| 1777582715 | 6.67° C | 63% | 1020.7 hPa | 0 mm | - | 170 W/m² | - |
| 1777582415 | 6.67° C | 62% | 833.3 hPa | 0 mm | - | 136 W/m² | - |
| 1777582115 | 6.67° C | 62% | 1020.7 hPa | 0 mm | - | 123 W/m² | - |
* Rain latest hour (hover to see other rain measurements)
** Current wind speed in m/s (hover to see current wind gust speed)